TimeNZDT,TemperatureF,Dew PointF,Humidity,Sea Level PressureIn,VisibilityMPH,Wind Direction,Wind SpeedMPH,Gust SpeedMPH,PrecipitationIn,Events,Conditions,WindDirDegrees,DateUTC
12:00 AM,50.0,39.2,66,29.42,-9999.0,NNE,8.1,-,N/A,,Clear,30,2012-10-20 11:00:00
1:00 AM,50.0,39.2,66,29.39,-9999.0,SE,5.8,-,N/A,,Clear,140,2012-10-20 12:00:00
2:00 AM,50.0,37.4,62,29.36,-9999.0,SSW,1.2,-,N/A,,Clear,210,2012-10-20 13:00:00
3:00 AM,46.4,37.4,71,29.36,-9999.0,SSE,3.5,-,N/A,,Clear,160,2012-10-20 14:00:00
4:00 AM,46.4,39.2,76,29.33,-9999.0,NNE,5.8,-,N/A,,Clear,30,2012-10-20 15:00:00
5:00 AM,48.2,41.0,76,29.33,-9999.0,Calm,Calm,-,N/A,,Clear,0,2012-10-20 16:00:00
6:00 AM,44.6,39.2,81,29.33,-9999.0,Calm,Calm,-,N/A,,Clear,0,2012-10-20 17:00:00
7:00 AM,44.6,39.2,81,29.33,-9999.0,NW,3.5,-,N/A,,Clear,320,2012-10-20 18:00:00
8:00 AM,51.8,44.6,76,29.33,-9999.0,NNW,1.2,-,N/A,,Clear,340,2012-10-20 19:00:00
9:00 AM,59.0,44.6,59,29.33,-9999.0,North,4.6,-,N/A,,Clear,360,2012-10-20 20:00:00
10:00 AM,66.2,41.0,40,29.33,-9999.0,NW,15.0,-,N/A,,Clear,310,2012-10-20 21:00:00
11:00 AM,68.0,42.8,40,29.33,-9999.0,WNW,13.8,-,N/A,,Clear,300,2012-10-20 22:00:00
12:00 PM,66.2,41.0,40,29.33,-9999.0,WNW,11.5,-,N/A,,Clear,300,2012-10-20 23:00:00
1:00 PM,68.0,39.2,35,29.33,-9999.0,NW,11.5,-,N/A,,Clear,320,2012-10-21 00:00:00
2:00 PM,69.8,39.2,33,29.30,-9999.0,WNW,10.4,-,N/A,,Clear,300,2012-10-21 01:00:00
3:00 PM,68.0,37.4,33,29.30,-9999.0,WNW,15.0,-,N/A,,Clear,300,2012-10-21 02:00:00
4:00 PM,68.0,39.2,35,29.27,-9999.0,WNW,15.0,-,N/A,,Clear,290,2012-10-21 03:00:00
5:00 PM,62.6,51.8,68,29.30,-9999.0,SSW,12.7,-,N/A,,Clear,210,2012-10-21 04:00:00
6:00 PM,59.0,48.2,67,29.30,6.2,SSW,12.7,-,N/A,,Partly Cloudy,210,2012-10-21 05:00:00
7:00 PM,53.6,46.4,77,29.33,6.2,SW,16.1,-,N/A,,Partly Cloudy,220,2012-10-21 06:00:00
8:00 PM,50.0,46.4,87,29.36,6.2,SSW,13.8,-,N/A,,Scattered Clouds,210,2012-10-21 07:00:00
9:00 PM,48.2,44.6,87,29.36,6.2,SW,9.2,-,N/A,,Scattered Clouds,230,2012-10-21 08:00:00
10:00 PM,46.4,42.8,87,29.39,6.2,West,3.5,-,N/A,,Scattered Clouds,280,2012-10-21 09:00:00
11:00 PM,44.6,42.8,93,29.36,-9999.0,West,3.5,-,N/A,,Clear,280,2012-10-21 10:00:00